EW2219 Weather Reports


time (UTC)temp
C
wind
direction
speed
KPH
gust
KPH
rain 1hr
cm
rain 24hr
cm
rain mn
cm
humidity
%
barometer
mb
20260505122415 13 259 8.0 9.7 0.00 0.00 0.00 100 1001.2
20260505120915 13 206 4.8 6.4 0.00 0.00 0.00 100 1000.9
20260505115416 13 235 8.0 12.9 0.00 0.00 0.00 100 1000.8
20260505113915 13 205 6.4 9.7 0.00 0.00 0.00 100 1000.9
20260505112415 13 200 3.2 6.4 0.00 0.00 0.00 100 1000.9
20260505110915 12 233 8.0 12.9 0.00 0.00 0.00 100 1000.7
20260505100915 12 221 12.9 20.9 0.00 0.00 0.00 100 999.8
20260505095415 12 225 9.7 14.5 0.00 0.00 0.00 100 999.6
20260505093915 12 214 12.9 19.3 0.00 0.00 0.00 100 999.5
20260505092415 12 228 9.7 16.1 0.00 0.00 0.00 100 999.5
20260505085415 12 185 9.7 14.5 0.00 0.00 0.00 100 999.1
20260505083915 12 215 9.7 16.1 0.00 0.00 0.00 100 999.4
20260505082415 12 239 3.2 4.8 0.00 0.00 0.00 100 999.6
20260505080915 12 247 8.0 16.1 0.00 0.00 0.00 100 999.6
20260505075415 11 217 9.7 17.7 0.00 0.00 0.00 100 999.6
20260505073915 12 224 4.8 9.7 0.00 0.00 0.00 100 999.7
20260505072415 12 206 4.8 8.0 0.00 0.00 0.00 100 999.8
20260505070915 13 207 0.0 4.8 0.00 0.00 0.00 100 999.8
20260505065415 13 226 9.7 14.5 0.00 0.00 0.00 100 1000.0
20260505063915 15 193 8.0 11.3 0.00 0.00 0.00 100 1000.2
20260505062415 15 208 9.7 17.7 0.00 0.00 0.00 100 1000.2
20260505060915 14 228 16.1 30.6 0.00 0.00 0.00 100 1000.3
20260505055415 13 222 14.5 24.1 0.00 0.00 0.00 100 1000.7
20260505053915 13 193 16.1 29.0 0.00 0.00 0.00 100 1000.7
20260505052415 14 220 11.3 17.7 0.00 0.00 0.00 100 1000.9
20260505050915 15 196 9.7 14.5 0.00 0.00 0.00 91 1001.0
20260505040915 15 216 19.3 32.2 0.00 0.00 0.00 86 1000.9
20260505035415 15 241 8.0 20.9 0.00 0.00 0.00 89 1000.9
20260505033915 14 221 16.1 20.9 0.00 0.00 0.00 91 1001.2
20260505032415 14 220 8.0 11.3 0.00 0.00 0.00 90 1000.9
20260505025415 13 226 8.0 12.9 0.00 0.00 0.00 87 1001.0
20260505023915 14 219 14.5 20.9 0.00 0.00 0.00 83 1001.1
20260505022415 15 228 8.0 11.3 0.00 0.00 0.00 79 1001.3
20260505020915 15 235 9.7 12.9 0.00 0.00 0.00 74 1001.4
20260505015415 15 241 19.3 30.6 0.00 0.00 0.00 68 1001.4
20260505013915 15 236 4.8 9.7 0.00 0.00 0.00 63 1001.2
20260505010915 15 229 4.8 8.0 0.00 0.00 0.00 63 1001.1
20260505005415 15 215 3.2 6.4 0.00 0.00 0.00 61 1001.1
20260505003915 16 193 8.0 1.6 0.00 0.00 0.00 58 1001.1
20260505002415 16 212 6.4 1.6 0.00 0.00 0.00 55 1001.0
20260505000915 17 212 11.3 16.1 0.00 0.00 0.00 54 1001.5
20260504235415 17 253 3.2 6.4 0.00 0.00 0.00 51 1001.6
20260504233915 18 214 6.4 9.7 0.00 0.00 0.00 49 1001.9
20260504230915 19 275 6.4 8.0 0.00 0.00 0.00 47 1002.0
20260504225415 20 209 11.3 20.9 0.00 0.00 0.00 44 1002.1
20260504223915 20 220 9.7 16.1 0.00 0.00 0.00 46 1002.3
20260504220915 20 222 19.3 33.8 0.00 0.00 0.00 50 1002.3
20260504215415 20 228 11.3 19.3 0.00 0.00 0.00 52 1002.3
20260504213915 20 233 16.1 35.4 0.00 0.00 0.00 53 1002.2
20260504210915 20 229 19.3 29.0 0.00 0.00 0.00 51 1001.9
20260504203915 20 211 19.3 37.0 0.00 0.00 0.00 52 1002.2
20260504195415 20 228 22.5 30.6 0.00 0.00 0.00 55 1002.5
20260504193915 20 205 22.5 37.0 0.00 0.00 0.00 52 1002.8
20260504192415 20 212 16.1 37.0 0.00 0.00 0.00 57 1003.1
20260504190915 19 256 16.1 25.7 0.00 0.00 0.00 55 1003.2
20260504185415 19 255 17.7 32.2 0.00 0.00 0.00 57 1003.3
20260504182415 18 209 16.1 29.0 0.00 0.00 0.00 61 1003.6
20260504180915 18 227 14.5 29.0 0.00 0.00 0.00 63 1003.8
20260504175415 18 210 22.5 37.0 0.00 0.00 0.00 62 1003.8
20260504173915 18 210 20.9 35.4 0.00 0.00 0.00 65 1004.2
20260504172415 17 214 19.3 29.0 0.00 0.00 0.00 64 1004.3
20260504170915 17 143 8.0 12.9 0.00 0.00 0.00 66 1004.4